Погода в Эрдниевском

Россия / Республика Калмыкия     46°51′55″N   46°16′50″E
темп.,
°C
ветер,
м/с
пор.,
м/с
влажн.,
%
обл.,
%
осадки,
мм/ч
давл.,
гПа
погр.,
м
23 октября, сб
сб2300:00+12юз46450 0.0 102085
03:00+11юз45440 0.0 102049
06:00+11юз44490 0.0 101946
09:00+15зюз35450 0.0 1020220
12:00+20зюз56340 0.0 1020855
15:00+21зюз56312 0.0 10181133
18:00+17ююз454031 0.0 101957
21:00+15ююз47445 0.0 1018106
24 октября, вс
вс2400:00+13ююз4859100 0.0 1018128
03:00+13юз4655100 0.0 101786
06:00+12зюз4553100 0.0 101771
09:00+14зсз3462100 0.0 1018250
12:00+17зсз3460100 0.0 1017737
15:00+15с4464100 0.0 1016489
18:00+14с3567100 0.0 1016318
21:00+13ссз4572100 0.0 1016162
25 октября, пн
пн2500:00+10с7879100 0.3 1015483
03:00+7ссз91184100 1.3 1017943
06:00+6сз71085100 6.4 1019804
09:00+9з710625 6.8 10191110
12:00+11зсз91040100 0.0 10192188
15:00+9сз81059100 0.4 10201477
18:00+7сз9117299 0.3 10231196
21:00+5сз8116013 0.3 1025803
26 октября, вт
вт2600:00+5сз81057100 0.0 10261486
03:00+5сз81070100 0.0 1028882
06:00+3ссз7116947 0.0 1029558
09:00+4ссз7961100 0.0 1031717
12:00+7ссз67495 0.0 10311164
15:00+8ссз67350 0.0 10301251
18:00+6с35340 0.0 1032133
21:00+5с33350 0.0 103238
27 октября, ср
ср2700:00+4ссв22385 0.0 103314
03:00+3св11400 0.0 103210
06:00+2вюв11400 0.0 103210
09:00+6юв23310 0.0 1033260
12:00+9ююв34240 0.0 1031730
15:00+10ююв45220 0.0 1029854
18:00+8юв46295 0.0 1029109
21:00+6ююв49505 0.0 1028225